STARLINK-32336, 61004

Orbit data source: Space-Track

STARLINK-32336, 61004 is a payload satellite owned by SpaceX/Seattle (US) in LEO that was launched on Thu, 05 Sep 2024 UTC via an FALCON 9 launch vehicle from the Air Force Eastern Test Range (AFETR). Payloads include a variety of satellites, spacecraft, and rockets equipped with specific instruments for various scientific and technological missions. These include communications satellites like Starlink; space stations such as the ISS; scientific satellites like the Hubble; Earth observation satellites from companies like Planet Labs, Umbra, and HawkEye 360; GPS; miniature CubeSats for education and research; and military/defense satellites.

Loading next visibility...
STARLINK-32336 details
Identifier
61004, 2024-158Q
Orbit
LEO
Last TLE update12 hours ago
Origin
Flag of USSpaceX/Seattle (US)
ManufacturerSpaceX/Seattle
MissionOperational spacecraft
Bus & MotorSTARLINK V2M, Unknown motor
Mass730 kg wet, ~700 kg dry
Launch date (UTC)
2024-09-05 (3 months ago)
Launch vehicle
FALCON 9
Launch site
Air Force Eastern Test Range (AFETR)
Object type
Payload
Rocket body
Debris
Shape & HBRUnknown
Radar Cross SectionLarge (>1 m²)

Expand to show TLE details & history

TLE from 12 hours ago
0 STARLINK-32336
1 61004U 24158Q   24336.94571660 -.00000016  00000-0  95821-5 0  9995
2 61004  53.1604  57.0223 0001503 102.4142 257.7031 15.39621042 14771
Epoch: 2024-12-01T22:41Z
Definitive object data (Epoch: 2024-12-01T22:41:49.914Z)
Latitude-0.00002°
Longitude5.28767°
Altitude448.351 km
Speed7.644 km/s
True Right ascension03h 48m 05s
True Declination0° 00' 00"
Sunlit
Object was in full shadow at TLE epoch
Visualization TLE readout
Latitude-9.78092°
Longitude-169.6382°
Altitude449.881 km
Speed7.643 km/s
Apparent Right ascension17h 49m 15s
Apparent Declination-27° 26' 28"
Sunlit
Object is in daylight
Visualization observer readout
Local Sidereal Time08:12:34
Azimuth78.227° E
Elevation-57.952°
Doppler factor1
Orbital elements
Apogee altitude448.512 km
Perigee altitude446.461 km
Semi-major axis6,825.623 km
Eccentricity0.0001503
Inclination53.1604°
RAAN57.0223°
Arg. of periapsis102.4142°
True anomaly257.68627°
Mean anomaly257.7031°
Eccentric anomaly257.69469°
Mean motion3.84884 °/min
BSTAR0.0000095821
Orbital period93.53 mins
Loading maneuver chart data...
Loading historical data...
Loading historical data...
Loading historical data...
Loading historical data...
Loading historical data...
Loading historical data...
Loading historical data...

STARLINK-32336 Visibility forecast

Observer location: undefined°, undefined

Span
Click to sort rows by Start time (UTC) header in descending order
Start Az.
Max El. time (UTC)
Max El. Az.
Max El.
End time (UTC)
End Az.
4 mins2024-12-02 14:47:00.610Z333.042° NNW2024-12-02 14:49:00.610Z69.247° E36.226°2024-12-02 14:51:00.610Z109.718° ESE
4 mins2024-12-03 07:36:00.610Z191.986° SSW2024-12-03 07:38:00.610Z110.802° ESE33.616°2024-12-03 07:40:00.610Z67.115° ENE
|